Terminal Aerodrome Forecast
Issued by NWS

Home | Current Version | Previous Version | Text Only | Print | Product List | Glossary On
Versions: 1 2 3 4 5 6 7 8 9 10 11 12 13 14 15 16 17 18 19 20 21 22 23 24 25 26 27 28 29 30 31 32 33 34 35 36 37 38 39 40 41 42 43 44
000
FTAK31 PANC 181135
TAFACD
TAF
PACD 181135Z 1812/1912 VRB03KT P6SM SCT015 BKN100
      TEMPO 1812/1816 BKN015
     FM182300 09007KT P6SM BKN030
     FM190600 06008KT P6SM BKN015=

USA.gov is the U.S. government's official web portal to all federal, state and local government web resources and services.